sat.trackr.live / text

‹ back to catalog

GAOFEN-9 02

NORAD 45625 · 2020-034B

PAYLOAD ACTIVE UNKNOWN

§ Identity

Operator
Country
PRC
Launch date
2020-05-31
Launch site
JSC
Launch vehicle
Mass (kg)
RCS (m²)

External: N2YO · Heavens-Above · Gunter

§ Orbital elements

Epoch: 2026-09-09T03:59:33.298368Z

Period
94.32 min
Inclination
97.5852°
Eccentricity
0.0013447
Mean motion
15.26722025 rev/d
Perigee alt
476.4 km
Apogee alt
494.8 km
Semi-major
6,863.8 km
B*
1.7691e-4
RAAN
50.7050°
Arg perigee
128.6136°
Mean anomaly
231.6309°
Rev number
34,897

§ Raw data

GAOFEN-9 021 45625U 20034B   26252.16635762  .00004583  00000+0  17691-3 0  99902 45625  97.5852  50.7050 0013447 128.6136 231.6309 15.26722025348970

JSON: /api/v1/satellites/45625 · /tle

For live sub-satellite position, see the globe view (requires WebGL).

§ Visibility from observer

Set your observer location to see the next 7 days of passes ≥ 10°. The values pass through the URL so the page stays shareable.

No JS? Fill the form by hand. The geolocation button needs JavaScript.